Time_in_sec,Mx,My,Mz
1326903190.07252455,0.36710060,-0.19273426,-0.49101305
1326903190.12148261,0.36919162,-0.19122522,-0.49178126
1326903190.17460871,0.36838832,-0.19205022,-0.49045232
1326903190.22155070,0.36928594,-0.19276375,-0.49027529
1326903190.27368832,0.36889678,-0.19334273,-0.49054042
1326903190.32164645,0.36792725,-0.19226462,-0.49196571
1326903190.37236094,0.36746803,-0.19322658,-0.48900303
1326903190.42155051,0.37000602,-0.19217958,-0.49086186
1326903190.47248554,0.36931193,-0.19227812,-0.49201590
1326903190.52159572,0.36893591,-0.19180685,-0.49191505
1326903190.57268262,0.36845574,-0.19370061,-0.48944378
1326903190.62566495,0.36725670,-0.19203942,-0.49038860
1326903190.67361331,0.36850783,-0.19179359,-0.49280730
1326903190.72499919,0.36931035,-0.19110811,-0.49189994
1326903190.77296948,0.36828592,-0.19345710,-0.49019966
1326903190.82555056,0.37000263,-0.19171105,-0.49086529
1326903190.87262487,0.36825919,-0.19288985,-0.48834220
1326903190.92092204,0.36863780,-0.19252011,-0.49055994
1326903190.97251320,0.36765704,-0.19204740,-0.48999462
1326903191.02163887,0.36783889,-0.19299504,-0.48910904
1326903191.07351112,0.36908835,-0.19396400,-0.48717281
1326903191.12164259,0.36856607,-0.19147645,-0.48945332
1326903191.17353344,0.36967272,-0.19115429,-0.48765787
1326903191.22152090,0.36983627,-0.19219270,-0.48938057
1326903191.27279568,0.36720636,-0.19298831,-0.48914284
1326903191.32148099,0.36761978,-0.19168942,-0.49062005
1326903191.37252736,0.36893684,-0.19218065,-0.48967701
1326903191.42448235,0.37011436,-0.19278502,-0.48898906
1326903191.47354698,0.36770472,-0.19193950,-0.48912352
1326903191.52155471,0.37009531,-0.19182293,-0.49148050
1326903191.57336402,0.36857793,-0.19430868,-0.48732182
1326903191.62150359,0.36684948,-0.19228674,-0.48866999
1326903191.67252231,0.36937866,-0.19313230,-0.48865333
1326903191.72148228,0.36999491,-0.19184925,-0.48875353
1326903191.77264428,0.36825481,-0.19323994,-0.48846418
1326903191.82067013,0.36868563,-0.19147648,-0.48957112
1326903191.87351656,0.36794651,-0.19254760,-0.48711938
1326903191.92057157,0.36667964,-0.19204323,-0.48942587
1326903191.97353601,0.36834931,-0.19265035,-0.48896000
1326903192.02151775,0.36862341,-0.19078553,-0.48833737
1326903192.07463408,0.36904770,-0.19313748,-0.48780164
1326903192.12151933,0.36944821,-0.19101734,-0.48940942
1326903192.17392898,0.36972108,-0.19184260,-0.48914078
1326903192.22445583,0.36866745,-0.19208057,-0.48770508
1326903192.27349854,0.36789447,-0.19181320,-0.49023196
1326903192.32454276,0.37114146,-0.18985170,-0.49056903
1326903192.37353635,0.36771160,-0.19313322,-0.48687947
1326903192.42143011,0.36868808,-0.19276361,-0.48968625
1326903192.47355533,0.36769426,-0.19240540,-0.48936921
1326903192.52148438,0.36924207,-0.19078963,-0.48855269
1326903192.57355118,0.36731040,-0.19300808,-0.48727432
1326903192.62584019,0.37038589,-0.19056879,-0.48836899
1326903192.67351651,0.36902788,-0.19231492,-0.48805678
1326903192.72550678,0.36759380,-0.19217506,-0.48887941
1326903192.77348900,0.36778006,-0.19277261,-0.48787183
1326903192.82153797,0.36872032,-0.19148307,-0.48894829
1326903192.87355542,0.36988038,-0.19374441,-0.48651111
1326903192.92148304,0.36715975,-0.19134186,-0.48977768
1326903192.97252584,0.37045166,-0.19079255,-0.48948163
1326903193.02463126,0.36905032,-0.19229649,-0.48991853
1326903193.07365584,0.36841249,-0.19371510,-0.48795572
1326903193.12124991,0.36954451,-0.18946964,-0.49202299
1326903193.17139506,0.37079033,-0.19209819,-0.48808843
1326903193.22111750,0.36819610,-0.19208178,-0.48710930
1326903193.27253699,0.36779997,-0.19240278,-0.48973617
1326903193.32163453,0.37009987,-0.19079377,-0.48900363
1326903193.37312603,0.36936048,-0.19373639,-0.48678729
1326903193.42465115,0.36885121,-0.19113433,-0.48881954
1326903193.47353673,0.36988494,-0.19126621,-0.48839089
1326903193.52164721,0.36977062,-0.19103323,-0.48815024
1326903193.57353473,0.36741087,-0.19323842,-0.48776412
1326903193.62155819,0.36861110,-0.19195288,-0.48870248
1326903193.67263699,0.36734614,-0.19100368,-0.48865241
1326903193.72148800,0.36878964,-0.19123961,-0.48993978
1326903193.77258015,0.36981204,-0.19172023,-0.48975769
1326903193.82107973,0.36847869,-0.19138826,-0.48647809
1326903193.87382913,0.36759642,-0.19278310,-0.48663968
1326903193.92561054,0.36912951,-0.18959852,-0.49042979
1326903193.97351313,0.36865529,-0.19231220,-0.48795250
1326903194.02153945,0.36849678,-0.19171992,-0.48846182
1326903194.07249999,0.36867779,-0.19255042,-0.48757708
1326903194.12148309,0.37016061,-0.19057138,-0.48788425
1326903194.17284465,0.36970532,-0.19373383,-0.48738983
1326903194.22164679,0.36830702,-0.19184622,-0.48735338
1326903194.27350068,0.37010244,-0.19114517,-0.48900107
1326903194.32464576,0.36898041,-0.19055134,-0.48869249
1326903194.37352347,0.36811450,-0.19349261,-0.48648292
1326903194.42072010,0.36789799,-0.19134599,-0.49011081
1326903194.47351599,0.36840737,-0.19301230,-0.48796088
1326903194.52150917,0.36943692,-0.19136611,-0.48965600
1326903194.57272124,0.36857027,-0.19325450,-0.48732957
1326903194.62072563,0.36878794,-0.19100533,-0.48994151
1326903194.67354584,0.36749503,-0.19217899,-0.48838791
1326903194.72156262,0.37029582,-0.18961592,-0.48987067
1326903194.77449083,0.36942384,-0.19267300,-0.48778480
1326903194.82155347,0.36796737,-0.19135918,-0.48886514
1326903194.87263060,0.36787954,-0.19382156,-0.48848018
1326903194.92147684,0.37038320,-0.19115314,-0.48848927
1326903194.97263193,0.36833033,-0.19194493,-0.48921427
1326903195.02063417,0.36870050,-0.19066051,-0.48920342
1326903195.07158399,0.36884573,-0.19323877,-0.48917779
1326903195.12430692,0.36954540,-0.18984342,-0.48978496
1326903195.17354751,0.36734235,-0.19334237,-0.48900893
1326903195.22091889,0.36847168,-0.19113030,-0.48883983
1326903195.27251339,0.36856601,-0.19266884,-0.48733386
1326903195.32152605,0.36884782,-0.19066581,-0.48882297
1326903195.37255526,0.36677665,-0.19299743,-0.48779964
1326903195.42455173,0.36886838,-0.19254124,-0.48868468
1326903195.47352219,0.36853722,-0.19322552,-0.49018785
1326903195.52146792,0.36946911,-0.18982892,-0.49115521
1326903195.57354355,0.36877984,-0.19395076,-0.48818287
1326903195.62141681,0.36807758,-0.19007075,-0.48899239
1326903195.67262888,0.36835966,-0.19312020,-0.48883200
1326903195.72161198,0.36828360,-0.19123422,-0.48996684
1326903195.77351522,0.36876720,-0.19125804,-0.48807803
1326903195.82462263,0.36732352,-0.19170120,-0.48914552
1326903195.87352228,0.36785102,-0.19395581,-0.48674214
1326903195.92453861,0.36841443,-0.19207788,-0.48771861
1326903195.97354126,0.36850542,-0.19195549,-0.48833555
1326903196.02115464,0.36939451,-0.19149771,-0.48816708
1326903196.07261181,0.36872113,-0.19279259,-0.48682797
1326903196.12148452,0.36889273,-0.19207799,-0.48818985
1326903196.17261958,0.36874285,-0.19172129,-0.48857287
1326903196.22563982,0.36904967,-0.19150026,-0.48756453
1326903196.27352643,0.36889699,-0.19266365,-0.48818555
1326903196.32154989,0.36857241,-0.18948916,-0.48909423
1326903196.37353086,0.36764747,-0.19288708,-0.48800230
1326903196.42151237,0.37003070,-0.19010150,-0.48789445
1326903196.47349238,0.36896628,-0.19242018,-0.48917705
1326903196.52147985,0.36862582,-0.19207266,-0.48845249
1326903196.57253432,0.36831811,-0.19336894,-0.48734224
1326903196.62450814,0.36857229,-0.19042489,-0.48921192
1326903196.67355680,0.36851403,-0.19219108,-0.48820925
1326903196.72450113,0.36721343,-0.19205388,-0.48890057
1326903196.77352405,0.36905318,-0.19103307,-0.48744339
1326903196.82151580,0.37052882,-0.19092418,-0.48811054
1326903196.87255120,0.36724210,-0.19243294,-0.48616427
1326903196.92149973,0.36910436,-0.19020130,-0.48868832
1326903196.97254014,0.37041691,-0.19197834,-0.48798499
1326903197.02553368,0.36829072,-0.19055645,-0.48748741
1326903197.07135224,0.36896902,-0.19209249,-0.48681960
1326903197.12485433,0.37002382,-0.18890779,-0.49013847
1326903197.17364502,0.37000269,-0.19196771,-0.48862812
1326903197.22153592,0.36907819,-0.19136602,-0.48930258
1326903197.27252650,0.36979550,-0.19230193,-0.49012712
1326903197.32156062,0.36988837,-0.19173473,-0.48838747
1326903197.37251306,0.36900169,-0.19347964,-0.48867103
1326903197.42284155,0.36848217,-0.19066441,-0.48859411
1326903197.47353125,0.37043601,-0.19174802,-0.48761302
1326903197.52482653,0.36972290,-0.19114113,-0.48902136
1326903197.57353711,0.36847571,-0.19358744,-0.48907092
1326903197.62058711,0.36919960,-0.19066457,-0.48930097
1326903197.67261386,0.36892813,-0.19313745,-0.48768383
1326903197.72149754,0.36800644,-0.19101569,-0.48812032
1326903197.77350116,0.36926204,-0.19067645,-0.48817986
1326903197.82063890,0.36987790,-0.19220062,-0.48863316
1326903197.87352347,0.36847669,-0.19276883,-0.48895237
1326903197.92156482,0.36956882,-0.18900637,-0.49152815
1326903197.97352290,0.36868638,-0.19252935,-0.48968798
1326903198.02151966,0.36983371,-0.19184132,-0.48938313
1326903198.07435465,0.36841679,-0.19310836,-0.49007091
1326903198.12150979,0.37005290,-0.19195455,-0.48999161
1326903198.17257476,0.36924973,-0.19184381,-0.48854497
1326903198.22455096,0.36874631,-0.19099742,-0.49068892
1326903198.27352190,0.37004426,-0.19171897,-0.49011788
1326903198.32454228,0.36828360,-0.19123422,-0.48996684
1326903198.37252927,0.36783734,-0.19182503,-0.48899305
1326903198.42130113,0.36822459,-0.19169088,-0.49108452
1326903198.47334123,0.36912572,-0.19193721,-0.49078631
1326903198.52148271,0.36832097,-0.19065647,-0.48922372
1326903198.57332039,0.36933011,-0.19312306,-0.48952532
1326903198.62453914,0.36961460,-0.19053569,-0.49089417
1326903198.67351174,0.37042111,-0.19230735,-0.49021786
1326903198.72454691,0.37107378,-0.19007277,-0.49181300
1326903198.77352905,0.36903888,-0.19358099,-0.49028280
1326903198.82151508,0.36822033,-0.19110522,-0.49108881
1326903198.87253404,0.36739877,-0.19227766,-0.49013099
1326903198.92147374,0.37046194,-0.19100574,-0.49159080
1326903198.97249985,0.36970198,-0.19207291,-0.48951274
1326903199.02453160,0.36770040,-0.19109719,-0.49136499
1326903199.07258987,0.36972705,-0.19266252,-0.48913476
1326903199.12462449,0.37021160,-0.19041871,-0.49148405
1326903199.17352557,0.36819676,-0.19287799,-0.48946330
1326903199.22154331,0.37002435,-0.19063975,-0.49261019
1326903199.27257657,0.36798444,-0.19250943,-0.49096745
1326903199.32150936,0.36908069,-0.19146077,-0.49153715
1326903199.37271190,0.36888912,-0.19228855,-0.49054813
1326903199.42452002,0.37045681,-0.19030294,-0.49159595
1326903199.47367930,0.36879894,-0.19227141,-0.49216753
1326903199.52555251,0.36816841,-0.18943506,-0.49408367
1326903199.57357955,0.36762914,-0.19297788,-0.49061060
1326903199.62155318,0.37107438,-0.19206138,-0.49204755
1326903199.67249846,0.36900938,-0.19308479,-0.49301997
1326903199.72150350,0.36866996,-0.19072627,-0.49429631
1326903199.77256131,0.36952770,-0.19192281,-0.49262780
1326903199.82464099,0.36950433,-0.19156747,-0.49300408
1326903199.87350965,0.36824512,-0.19356631,-0.49094620
1326903199.92102051,0.36871073,-0.19061705,-0.49354979
1326903199.97356224,0.37002495,-0.19262835,-0.49284473
1326903200.02498484,0.36979628,-0.19216241,-0.49236342
1326903200.07264709,0.36891851,-0.19227143,-0.49228531
1326903200.12177968,0.36948618,-0.19097917,-0.49325749
1326903200.17265534,0.36932743,-0.19225836,-0.49400222
1326903200.22458410,0.36895144,-0.19178711,-0.49390137
1326903200.27350330,0.36891237,-0.19213060,-0.49464619
1326903200.32153559,0.37032071,-0.18943557,-0.49620420
1326903200.37207580,0.36837512,-0.19284379,-0.49305549
1326903200.42153168,0.36952338,-0.19108050,-0.49486926
1326903200.47355223,0.36944273,-0.19167273,-0.49412432
1326903200.52153039,0.37000337,-0.19131488,-0.49533877
1326903200.57254457,0.36912808,-0.19296768,-0.49313861
1326903200.62164044,0.36843833,-0.19271614,-0.49417070
1326903200.67365432,0.36981100,-0.19228218,-0.49211344
1326903200.72063732,0.36963856,-0.19143061,-0.49510905
1326903200.77354908,0.36891150,-0.19201346,-0.49464706
1326903200.82155633,0.37103271,-0.19179682,-0.49503210
1326903200.87250733,0.36769500,-0.19200923,-0.49384269
1326903200.92147279,0.37210470,-0.19027567,-0.49597895
1326903200.97258902,0.36795938,-0.19047077,-0.49570209
1326903201.02059317,0.37065488,-0.19202705,-0.49505067
1326903201.07353950,0.36890799,-0.19248067,-0.49476820
1326903201.12460160,0.37149730,-0.18966617,-0.49775425
1326903201.17186022,0.37029374,-0.19073983,-0.49458215
1326903201.22546744,0.36860299,-0.19200023,-0.49565712
1326903201.27349663,0.37005788,-0.19214404,-0.49446079
1326903201.32148528,0.36967587,-0.19059621,-0.49660313
1326903201.37252378,0.36980572,-0.19225848,-0.49447346
1326903201.42453074,0.37124410,-0.19179159,-0.49576598
1326903201.47467709,0.36929020,-0.19190037,-0.49462765
1326903201.52434444,0.37092963,-0.19095844,-0.49678206
1326903201.57351995,0.36777294,-0.19200134,-0.49470791
1326903201.62131906,0.36987326,-0.19152409,-0.49770385
1326903201.67323112,0.36986455,-0.19248089,-0.49571064
1326903201.72151065,0.37010801,-0.19187422,-0.49806145
1326903201.77524900,0.36798432,-0.19199613,-0.49544179
1326903201.82550406,0.36999029,-0.19117272,-0.49782422
1326903201.87368464,0.36880058,-0.19224901,-0.49440297
1326903201.92762733,0.36929891,-0.19094355,-0.49662083
1326903201.97352648,0.37112209,-0.19050443,-0.49553308
1326903202.02117395,0.37086117,-0.19131903,-0.49578971
1326903202.07255840,0.36797374,-0.19339775,-0.49580520
1326903202.12160397,0.37002242,-0.19082792,-0.49720395
1326903202.17306876,0.36920282,-0.19036315,-0.49600905
1326903202.22196078,0.37092438,-0.19119138,-0.49690491
1326903202.27480197,0.36705106,-0.19209459,-0.49636024
1326903202.32451868,0.36797988,-0.19208954,-0.49780095
1326903202.37352586,0.36936802,-0.19282822,-0.49561056
1326903202.42150998,0.36882925,-0.19117904,-0.49602333
1326903202.47248983,0.36953026,-0.19082516,-0.49698186
1326903202.52148104,0.37041399,-0.19153607,-0.49705395
1326903202.57251000,0.36990619,-0.19248880,-0.49496326
1326903202.62564516,0.36896518,-0.19127645,-0.49812660
1326903202.67351818,0.37040010,-0.19153343,-0.49730310
1326903202.72565579,0.36980218,-0.19127664,-0.49895123
1326903202.77353406,0.37087923,-0.19165067,-0.49777347
1326903202.82158995,0.37078401,-0.19118740,-0.49716082
1326903202.87364793,0.36743557,-0.19373716,-0.49645251
1326903202.92160821,0.36884999,-0.19092633,-0.49788678
1326903202.97365499,0.37010986,-0.19117275,-0.49794203
1326903203.02460599,0.36787772,-0.19162494,-0.49731287
1326903203.07352018,0.36680242,-0.19174182,-0.49625176
1326903203.12151170,0.36957252,-0.19162929,-0.49858847
1326903203.17349577,0.36864346,-0.19350582,-0.49738315
1326903203.22453713,0.36795822,-0.19196846,-0.49817553
1326903203.27265859,0.36956924,-0.19022503,-0.49847421
1326903203.32148242,0.36967129,-0.19162537,-0.49907997
1326903203.37265968,0.36794356,-0.19210534,-0.49618834
1326903203.42063642,0.36964878,-0.19138715,-0.49945539
1326903203.47350430,0.36962536,-0.19222419,-0.49771219
1326903203.52068281,0.36934915,-0.18973801,-0.50010377
1326903203.57352734,0.36739925,-0.19230391,-0.49919653
1326903203.62154555,0.36882991,-0.19197525,-0.49837732
1326903203.67268753,0.37039047,-0.19211645,-0.49754792
1326903203.72061729,0.36827800,-0.19137628,-0.49915606
1326903203.77261305,0.36857858,-0.19220681,-0.49838912
1326903203.82164073,0.37051955,-0.19246919,-0.49753860
1326903203.87350535,0.36788976,-0.19232906,-0.49718317
1326903203.92153621,0.36914006,-0.19196610,-0.49960274
1326903203.97752285,0.36983752,-0.19352849,-0.49632576
1326903204.03248572,0.36900407,-0.19161204,-0.49973664
1326903204.07251811,0.36814332,-0.19406371,-0.49964136
1326903204.12150908,0.37023526,-0.19292843,-0.49817154
1326903204.17348576,0.36930650,-0.19174109,-0.49885029
1326903204.22453976,0.36973616,-0.19292437,-0.49807400
1326903204.27351046,0.36975527,-0.19269407,-0.49770200
1326903204.32453823,0.36910132,-0.19069476,-0.49787498
1326903204.37255359,0.36950755,-0.19271508,-0.49535552
1326903204.42452264,0.36819372,-0.19337146,-0.49864995
1326903204.47337580,0.36977887,-0.19117793,-0.49709034
1326903204.52704310,0.36816883,-0.19210276,-0.49667308
1326903204.57364058,0.36767039,-0.19434395,-0.49457294
1326903204.62553763,0.36932480,-0.19165032,-0.49624199
1326903204.67165852,0.36859193,-0.19047751,-0.49566829
1326903204.72467470,0.37082124,-0.19154538,-0.49653539
1326903204.77353477,0.36840013,-0.19317676,-0.49491465
1326903204.82451510,0.36902493,-0.19187266,-0.49712574
1326903204.87375164,0.36834815,-0.19269900,-0.49579006
1326903204.92149663,0.36992627,-0.19143990,-0.49447271
1326903204.97356415,0.36984655,-0.19095686,-0.49584639
1326903205.02454686,0.36843318,-0.19175670,-0.49641302
1326903205.07358694,0.36882055,-0.19213584,-0.49403012
1326903205.12149382,0.37157544,-0.18897919,-0.49626458
1326903205.17349696,0.36853454,-0.19236082,-0.49466476
1326903205.22108006,0.36909351,-0.19202536,-0.49364376
1326903205.27353740,0.36799401,-0.19166975,-0.49295977
1326903205.32179451,0.37053713,-0.19132555,-0.49481347
1326903205.37266755,0.36903554,-0.19192006,-0.49240571
1326903205.42456937,0.36936381,-0.19249922,-0.49337769
1326903205.47354937,0.36839843,-0.19294250,-0.49491638
1326903205.52465940,0.36930832,-0.19248867,-0.49437422
1326903205.57353568,0.36838126,-0.19298463,-0.49069461
1326903205.62154794,0.37027463,-0.19097014,-0.49495411
1326903205.67306924,0.36941755,-0.19201885,-0.49462003
1326903205.72148085,0.36929882,-0.19213596,-0.49450135
1326903205.77298689,0.36847839,-0.19155405,-0.49330729
1326903205.82560062,0.37128246,-0.19039525,-0.49490434
1326903205.87350321,0.36763322,-0.19424261,-0.49296117
1326903205.92509580,0.37043765,-0.19027659,-0.49420512
1326903205.97352052,0.36885619,-0.19132383,-0.49328873
1326903206.02078128,0.37036383,-0.19180588,-0.49345329
1326903206.07280779,0.36717770,-0.19260925,-0.49187914
1326903206.12148070,0.37046605,-0.19107810,-0.49606085
1326903206.17360711,0.37011862,-0.19192164,-0.49334139
1326903206.22481108,0.36986560,-0.19191894,-0.49335492
1326903206.27351761,0.37022272,-0.19074902,-0.49359235
1326903206.32564783,0.36903375,-0.19142915,-0.49464458
1326903206.37750983,0.36778408,-0.19378071,-0.49245960
1326903206.42153311,0.36810404,-0.19106041,-0.49544191
1326903206.47268367,0.36969587,-0.19073968,-0.49399310
1326903206.52150702,0.37003452,-0.19178869,-0.49483708
1326903206.57265759,0.36839154,-0.19319783,-0.49280378
1326903206.62063718,0.36826694,-0.19130261,-0.49481058
1326903206.67352867,0.36896983,-0.19050393,-0.49341255
1326903206.72051215,0.37059793,-0.18991075,-0.49581355
1326903206.77353716,0.36860928,-0.19120532,-0.49317855
1326903206.82052064,0.36954930,-0.19178724,-0.49449041
1326903206.87252545,0.36856052,-0.19332422,-0.49204874
1326903206.92148685,0.36886126,-0.19176997,-0.49552074
1326903206.97253132,0.37063333,-0.19097021,-0.49530753
1326903207.02451515,0.36809787,-0.19236861,-0.49344614
1326903207.07164407,0.36803618,-0.19340962,-0.49468410
1326903207.12451792,0.36973831,-0.19060807,-0.49548200
1326903207.17353392,0.36731803,-0.19235657,-0.49386039
1326903207.22451925,0.36790881,-0.19329114,-0.49469170
1326903207.27249622,0.37048864,-0.19157296,-0.49344826
1326903207.32150364,0.36991167,-0.19038439,-0.49460500
1326903207.37343144,0.36862728,-0.19272935,-0.49304283
1326903207.42553878,0.36942443,-0.19176352,-0.49673262
1326903207.47362137,0.36952153,-0.19178197,-0.49498868
1326903207.52461529,0.36907631,-0.19036180,-0.49601582
1326903207.57352233,0.36796236,-0.19493890,-0.49393228
1326903207.62154198,0.36764571,-0.19094712,-0.49459782
1326903207.67257524,0.36867663,-0.19259906,-0.49440715
1326903207.72150731,0.36985433,-0.19107531,-0.49572095
1326903207.77253151,0.36812812,-0.19246863,-0.49518245
1326903207.82451224,0.37025893,-0.19166897,-0.49532267
1326903207.87321806,0.36850148,-0.19378088,-0.49316642
1326903207.92148542,0.36782581,-0.19140384,-0.49595112
